Theta_e
291 290 289 290 289 289 288 288 287 287 288 290 287 284 284 284 279 281 290 294 291 294 295 295 298 295 294 293 293 293 293 294 294 294 293 293 293 293 293 293 294 294 295 295 296 297 298 301 304 309 314 314 314 314 315 316 317 316 317 316 316 317 317 317 316 315 315 315 315 315 314 315 315 314 314 312 311 310 310 308 309 306 306 306 305 305 304
290 291 290 289 288 287 287 286 287 288 288 288 288 287 286 286 285 289 293 293 292 295 297 298 295 294 293 292 293 293 291 291 291 291 291 291 291 292 292 293 294 295 295 296 296 296 296 297 300 307 311 313 314 314 314 315 314 314 315 315 315 314 314 314 314 314 314 314 315 313 313 313 315 315 314 313 312 312 310 309 308 308 306 306 305 305 304
286 290 291 289 287 286 283 285 286 287 287 289 288 287 289 293 292 293 294 292 289 295 296 294 294 293 293 293 292 291 291 291 290 290 290 290 291 292 292 293 294 294 295 295 296 296 296 296 298 300 303 307 309 311 313 314 314 314 315 313 312 314 314 315 315 315 315 314 315 314 313 314 314 314 313 312 311 311 311 310 308 307 307 306 305 305 305
283 289 288 287 289 286 284 284 284 284 284 285 287 285 289 290 290 293 292 288 286 292 293 293 292 292 291 290 291 291 290 290 290 289 289 290 291 292 293 293 294 294 294 295 295 296 296 297 297 297 298 299 299 299 300 301 302 302 303 303 304 306 309 312 313 313 313 313 313 314 315 313 311 312 312 312 312 311 311 312 311 308 308 307 306 305 304
282 287 288 287 285 284 280 280 283 284 284 287 289 290 291 292 295 291 289 287 291 291 293 290 290 290 290 290 291 289 289 290 290 289 289 289 291 292 293 293 294 294 294 295 296 296 297 297 297 297 298 298 298 298 299 299 300 300 300 300 299 300 302 303 304 306 308 308 308 308 310 312 312 310 311 312 311 312 310 309 310 311 309 308 307 305 305
283 286 286 287 283 277 277 286 288 287 285 285 285 285 288 290 292 289 292 291 292 292 291 290 289 289 290 290 292 293 292 291 291 290 290 291 292 293 293 293 294 294 295 295 296 297 297 298 298 299 299 298 298 299 299 299 298 299 298 298 298 298 299 300 300 300 301 301 300 301 301 302 303 304 305 306 307 307 308 309 308 308 308 308 307 307 307
282 284 285 282 277 278 287 291 292 291 290 291 288 288 290 291 292 291 290 290 290 291 291 290 290 290 291 292 292 294 295 294 292 291 291 292 292 292 293 293 294 294 295 295 296 297 298 299 299 299 298 298 298 297 298 298 298 298 298 298 298 298 298 299 299 299 299 299 299 299 299 299 299 299 299 299 300 301 301 303 305 305 305 306 307 308 308
283 282 281 276 277 286 290 292 291 292 292 289 289 288 290 291 291 290 288 289 289 289 289 289 289 288 288 291 292 291 292 294 294 292 291 292 292 292 293 293 294 295 295 295 296 296 299 299 299 299 298 299 298 297 298 298 297 297 297 297 297 297 297 298 298 299 299 298 298 298 298 298 297 297 296 296 297 298 299 298 299 300 302 303 304 307 308
279 279 279 280 285 285 286 286 287 287 285 286 285 283 286 292 291 289 288 288 288 289 288 288 288 288 289 287 287 291 291 291 292 292 292 292 293 293 294 294 294 296 296 296 296 297 297 298 298 298 298 298 298 298 298 297 297 297 297 297 297 297 297 298 298 298 298 298 298 297 297 296 295 295 295 296 296 297 296 296 297 298 298 299 300 301 304
282 279 277 277 276 276 281 286 290 293 293 292 290 288 285 292 291 292 289 287 287 288 289 288 289 291 287 283 284 290 291 291 290 291 291 293 294 295 295 296 296 297 297 297 297 296 296 296 297 298 298 298 297 297 297 297 297 297 297 296 297 297 296 297 297 297 297 297 297 296 296 295 294 294 294 294 294 295 294 294 294 295 296 296 297 298 298
281 278 275 273 272 277 284 286 288 291 293 292 291 286 283 290 291 291 290 288 289 289 289 288 288 288 283 282 284 289 291 291 292 291 292 292 294 295 296 296 295 296 296 297 296 296 296 295 296 297 297 297 297 296 296 296 296 296 296 296 296 296 296 297 297 297 297 297 296 296 296 296 295 294 294 294 294 293 294 293 293 293 296 294 295 295 296
278 277 276 275 278 277 283 285 287 289 292 294 288 279 279 287 291 290 289 289 289 290 289 289 289 287 282 282 285 289 291 292 292 292 291 291 293 295 296 297 297 297 297 296 295 295 295 295 296 297 297 297 296 295 295 295 294 294 294 294 295 296 297 297 297 297 297 297 296 296 295 295 295 295 295 294 294 294 293 294 293 293 294 294 294 294 295
279 279 277 276 277 282 285 286 287 289 290 290 280 275 282 288 289 290 290 289 289 289 288 288 285 287 288 288 289 290 289 289 290 290 290 291 292 293 294 294 296 295 295 295 294 294 295 296 296 296 296 295 294 294 294 294 293 294 295 295 295 294 294 294 295 296 296 296 295 295 295 294 294 294 295 294 294 293 293 293 293 293 293 293 293 293 293
276 274 274 275 276 282 286 287 287 288 288 280 275 284 290 290 289 290 291 289 288 288 287 286 286 287 289 290 289 289 289 289 289 289 290 291 292 293 295 295 294 294 294 294 294 294 294 295 295 295 295 294 293 293 293 292 293 294 295 294 294 294 293 293 293 293 293 294 295 295 295 294 293 293 293 294 293 293 293 292 292 291 291 292 291 291 291
277 275 274 274 275 282 288 286 286 287 282 280 287 287 289 291 290 289 289 289 289 289 287 288 288 288 287 287 287 287 288 289 289 290 290 290 291 291 292 292 293 294 293 293 293 293 293 293 294 294 294 293 292 293 292 292 294 294 294 294 294 293 293 292 293 292 292 292 293 294 294 293 292 292 292 293 293 293 292 292 291 291 291 291 290 290 290
274 275 274 274 280 284 288 287 282 284 286 289 288 287 286 289 290 289 289 289 290 290 289 288 287 287 287 287 287 287 287 289 290 291 291 290 290 290 291 292 292 293 293 293 293 292 293 293 293 294 294 293 293 292 291 293 293 293 293 292 292 291 291 291 291 292 292 292 291 291 292 292 292 291 291 291 291 291 291 290 290 289 289 289 289 288 288
277 276 279 285 286 287 288 287 287 287 289 290 291 290 290 288 289 291 289 290 291 291 290 289 288 287 287 286 287 288 288 289 289 289 289 290 290 291 291 291 292 292 291 291 291 292 292 292 293 293 294 293 292 292 292 293 293 293 292 291 291 290 289 289 289 289 289 289 290 289 289 290 290 290 289 289 289 290 290 289 288 288 288 288 287 288 288
285 286 286 288 287 287 288 289 289 289 289 291 292 290 288 290 291 292 290 291 291 291 291 290 289 288 288 288 287 287 288 289 290 290 289 289 290 291 291 291 291 292 292 292 292 292 291 292 292 292 291 292 291 290 291 291 290 291 291 290 290 289 288 288 288 288 288 288 288 288 288 288 289 289 288 288 289 289 289 288 288 288 287 287 287 287 287
278 276 286 286 286 287 288 288 289 290 291 291 292 291 290 290 291 291 292 291 290 291 290 290 289 288 289 288 287 287 287 287 288 289 289 289 290 289 289 289 290 291 291 291 291 292 291 291 291 291 290 290 290 289 289 289 289 289 289 289 289 288 287 287 287 287 287 287 287 287 286 287 287 288 288 287 287 288 287 287 286 287 286 286 287 286 286
275 278 285 286 286 287 289 289 289 288 289 291 292 292 293 293 293 293 292 293 291 292 291 291 289 289 289 289 288 288 287 287 287 287 287 287 288 288 288 288 288 288 288 288 289 290 290 289 289 290 290 290 290 290 290 290 288 288 289 288 287 287 287 287 288 288 287 288 287 286 286 286 287 287 287 287 287 287 287 287 286 286 286 286 285 286 286
280 282 283 283 285 285 286 289 290 290 290 290 290 291 291 291 291 291 291 292 291 291 289 289 289 288 287 287 287 286 285 286 287 287 287 287 287 287 287 287 287 288 288 288 287 289 289 288 287 287 288 289 290 289 289 289 288 289 289 287 287 287 286 286 287 287 288 287 287 287 287 287 286 286 287 288 288 288 287 286 287 288 287 286 286 286 285
274 276 280 281 278 277 283 287 288 289 291 291 290 290 290 290 289 289 288 288 289 289 288 289 289 287 286 286 286 286 286 285 285 285 286 286 287 288 289 289 289 289 289 287 288 288 288 288 288 288 288 289 289 290 289 288 288 288 288 288 287 287 287 287 287 287 288 287 287 287 287 286 287 287 287 290 289 288 287 290 290 289 289 286 288 287 286
275 278 283 282 282 283 283 284 286 287 289 289 289 289 289 289 290 289 288 287 287 288 288 289 289 288 287 286 286 285 285 284 284 285 286 287 287 287 288 288 287 287 287 288 288 288 288 288 288 288 288 288 288 289 287 286 287 286 287 287 286 285 287 287 286 287 287 287 288 287 288 286 287 286 287 287 289 289 290 290 290 289 289 289 289 289 288
283 284 285 285 284 283 284 285 285 286 286 287 285 285 286 287 288 289 289 288 287 285 286 287 289 288 287 286 286 284 283 284 284 284 284 286 286 286 286 287 286 286 287 287 286 286 286 287 287 287 288 288 287 287 286 285 285 286 286 286 286 286 286 286 287 286 286 286 287 287 288 286 286 286 285 284 286 289 290 290 290 289 289 289 289 289 289
283 286 286 288 288 287 287 287 288 287 288 286 285 285 285 285 285 286 286 285 286 286 285 285 284 285 285 283 284 284 283 283 284 285 285 286 285 286 285 285 286 286 286 286 286 286 286 287 288 288 288 288 287 286 286 285 285 285 285 284 284 284 284 286 286 288 287 287 287 288 289 288 287 286 284 284 284 285 288 289 289 289 289 289 289 289 289
287 286 287 289 289 288 288 288 288 288 289 289 287 287 288 289 287 286 285 285 284 284 285 283 283 283 284 284 283 282 282 283 285 285 284 284 284 285 284 285 286 285 285 286 287 286 285 286 287 287 287 288 287 286 286 286 286 286 285 285 285 285 285 284 284 286 287 288 286 285 287 286 286 283 284 284 283 283 284 285 287 288 289 289 289 289 289
286 287 287 285 284 285 287 288 286 288 288 288 287 286 285 286 289 286 284 284 284 284 285 284 283 282 282 283 283 282 284 283 283 283 283 283 284 285 284 285 284 284 284 284 285 286 287 287 288 287 287 288 287 285 286 286 286 286 285 285 284 285 286 286 285 285 286 286 286 286 285 286 284 284 284 283 282 283 283 284 284 285 286 287 288 289 288
285 286 286 283 281 282 284 286 285 286 285 285 284 284 283 283 284 284 284 284 284 284 282 282 283 282 283 282 283 282 282 283 284 282 282 283 283 282 283 283 283 282 283 283 284 285 284 284 285 286 287 287 287 286 285 285 286 287 285 284 284 284 284 284 284 285 285 286 285 284 284 284 285 283 283 283 283 285 285 286 286 286 286 287 287 288 289
285 285 286 286 286 286 287 287 287 287 287 287 285 283 283 283 282 283 283 283 283 283 283 283 282 282 284 283 282 283 283 282 282 282 283 282 282 282 282 282 281 283 283 283 283 283 283 283 284 286 287 286 285 285 285 285 286 286 285 285 285 283 283 283 284 284 284 284 284 284 284 284 283 283 283 284 284 285 286 286 286 286 286 287 288 288 288
284 285 286 285 285 286 286 285 286 285 285 285 284 284 281 283 282 283 283 282 282 283 282 281 282 282 282 282 281 282 283 283 283 282 281 281 281 280 279 281 283 283 282 282 281 281 282 283 284 285 286 285 285 284 284 284 284 284 284 285 285 284 283 283 284 285 284 284 285 285 284 284 283 283 284 283 284 283 283 284 285 284 284 286 287 286 285
283 283 283 283 283 283 284 284 283 284 284 284 282 282 283 281 282 283 282 281 281 282 281 281 281 281 281 281 281 281 281 281 281 281 281 280 278 276 276 281 283 281 282 280 280 281 281 282 283 284 285 285 284 284 285 284 284 284 284 284 282 284 286 286 285 285 286 286 287 286 285 283 283 282 282 283 283 283 283 282 282 282 283 285 285 285 285
282 283 283 282 282 283 284 283 283 284 284 283 282 281 281 281 281 281 281 281 282 281 281 281 281 282 281 280 280 280 279 278 279 279 277 275 274 273 275 279 281 281 280 280 279 280 281 281 282 284 284 285 285 284 284 283 283 284 285 284 285 283 283 284 284 284 285 286 286 285 284 283 283 282 282 282 282 282 282 281 281 281 281 283 284 285 285
282 283 283 284 284 284 284 282 283 284 284 283 281 282 281 281 281 282 283 282 281 281 282 282 282 281 280 279 278 278 276 273 272 273 273 273 272 272 274 277 279 280 280 280 280 280 281 282 283 284 284 284 285 285 285 283 283 284 283 282 283 282 283 283 284 284 285 285 285 284 283 282 282 282 282 282 282 281 280 280 280 280 281 282 283 285 285
282 283 284 285 286 285 283 282 282 284 283 282 281 281 281 281 281 281 281 281 282 282 282 282 281 280 277 277 276 274 272 274 273 274 274 272 273 273 274 277 279 279 280 280 280 281 282 283 283 284 285 285 285 284 285 284 284 284 282 282 283 283 283 282 282 283 284 285 286 286 286 283 283 283 282 282 281 281 280 280 280 279 280 282 283 285 286
283 283 284 285 285 285 285 285 285 283 283 284 283 283 282 281 281 281 281 282 282 283 282 281 280 278 276 274 271 270 271 274 274 272 272 272 273 273 275 278 279 279 279 280 280 281 283 283 284 283 284 285 284 284 285 284 283 283 282 283 282 282 282 282 282 282 283 284 286 286 286 285 284 283 283 282 281 281 280 278 279 280 279 282 285 286 285
284 284 285 285 285 286 285 284 284 283 282 282 282 283 282 283 282 281 282 282 282 282 280 280 278 276 274 271 271 269 271 272 270 268 269 270 272 270 275 279 279 279 278 280 281 281 281 282 283 283 283 283 283 284 283 282 282 283 283 283 282 283 282 282 281 281 282 283 284 285 285 285 285 284 282 281 281 281 280 280 280 279 280 283 284 284 284
284 284 283 283 283 284 285 286 285 285 284 282 282 283 284 283 283 283 283 282 283 282 281 280 278 276 276 275 275 271 270 271 271 271 273 271 269 272 275 275 278 278 279 279 280 280 282 283 284 284 283 283 283 283 282 284 284 283 283 283 282 283 284 282 280 281 281 281 281 282 284 284 284 285 285 284 283 282 281 279 282 281 282 283 284 284 284
284 284 285 285 285 285 286 288 288 287 287 286 285 284 283 282 281 282 283 283 283 282 281 280 280 280 277 274 271 270 270 268 268 270 269 269 270 275 276 276 277 278 277 278 279 280 281 282 283 283 283 283 283 282 282 284 284 283 283 282 281 281 282 282 281 281 281 281 281 280 280 280 281 283 285 285 285 284 282 282 280 282 284 284 285 285 284
285 284 284 284 284 284 285 285 285 285 285 285 286 285 284 283 282 281 282 283 283 282 281 280 279 279 278 277 276 274 273 271 269 269 270 271 274 277 278 279 279 279 280 280 280 280 282 281 282 282 283 284 283 283 283 283 284 283 282 281 282 280 281 281 281 281 281 281 280 281 280 280 281 283 285 285 284 283 283 282 282 282 283 284 285 285 284
284 284 285 285 285 286 285 285 285 286 285 285 284 284 284 284 282 282 282 282 283 282 281 280 280 280 279 279 279 279 279 278 274 271 272 274 278 278 280 281 283 283 283 283 283 282 281 282 282 282 283 283 282 282 282 282 283 283 283 282 281 280 280 281 281 281 281 281 282 282 282 281 281 282 284 285 285 285 284 284 283 283 283 285 285 285 285
283 284 284 284 284 283 284 284 285 286 286 285 285 285 284 284 282 281 282 283 283 283 282 281 281 281 281 281 281 281 280 279 278 277 276 277 276 278 278 280 283 284 285 284 283 283 282 281 282 282 281 282 282 282 281 281 281 282 282 282 281 281 281 281 282 281 281 281 282 282 282 281 282 282 284 285 285 285 285 284 283 284 285 286 286 286 285
284 283 283 283 282 284 284 285 285 286 286 286 285 285 285 285 283 284 283 282 282 283 282 282 282 283 283 282 281 280 280 279 278 278 278 279 279 276 276 279 282 282 283 282 282 282 281 281 282 282 281 281 282 282 282 281 280 282 282 282 282 282 281 281 281 281 281 281 281 281 282 282 282 283 284 285 285 286 285 283 282 284 286 286 286 286 286
283 284 283 283 283 283 284 284 285 286 285 286 285 285 285 285 285 285 285 282 282 282 283 283 283 282 281 281 280 280 281 280 279 279 279 279 279 279 280 279 279 279 282 281 282 282 282 282 282 280 281 281 281 282 282 281 280 281 283 283 282 282 281 281 280 280 281 281 280 280 281 282 283 284 285 285 285 285 284 284 283 284 285 286 285 285 285
282 283 283 283 283 284 283 283 283 283 283 286 286 285 285 284 285 285 286 284 282 282 283 283 283 282 282 281 280 280 280 280 280 280 279 279 280 281 281 280 281 281 281 281 281 282 282 281 280 280 282 282 282 282 281 281 280 281 283 283 283 283 281 281 280 280 280 280 280 279 279 281 282 283 284 285 284 284 284 283 283 284 284 285 284 284 284
282 283 284 284 284 283 283 283 284 286 286 284 284 285 285 284 285 284 285 284 284 283 282 282 282 282 282 281 281 282 281 281 281 281 280 280 279 281 281 282 283 281 281 282 281 281 281 280 280 282 282 282 282 282 280 280 281 283 284 284 283 282 282 281 281 280 280 280 281 280 280 280 280 282 283 284 284 283 283 283 284 284 285 284 284 282 280
282 282 283 283 283 284 285 286 286 285 284 285 286 286 284 284 284 283 283 284 284 283 283 283 283 283 283 282 282 281 280 279 279 282 282 282 282 282 279 281 282 282 282 282 281 281 282 282 282 282 282 282 282 281 281 282 283 284 284 284 283 283 282 281 281 280 280 280 280 280 280 280 280 281 283 284 284 284 283 283 282 283 284 284 283 282 281
282 282 282 282 283 284 284 284 284 285 285 285 285 286 286 284 284 284 284 283 284 285 284 282 283 283 283 283 282 281 280 280 279 279 281 281 281 282 281 281 282 282 282 282 282 283 282 282 282 282 283 282 282 281 281 282 284 284 284 284 283 282 282 282 282 282 281 280 280 281 282 281 279 280 281 283 284 285 284 282 281 282 283 283 283 283 283
283 283 284 282 283 283 284 284 285 284 283 285 285 284 285 283 283 283 282 282 283 283 283 282 282 283 282 282 282 282 282 282 279 281 279 280 280 280 280 280 281 282 282 282 283 283 282 282 282 282 282 283 282 281 282 282 283 283 284 283 283 282 282 282 282 281 281 280 281 280 280 281 280 280 279 279 280 283 283 283 282 282 283 283 282 283 284
283 283 283 282 283 284 283 283 283 283 283 284 283 285 285 283 283 283 283 283 283 284 283 283 283 283 283 283 283 282 282 281 283 282 280 280 280 280 280 281 282 282 281 281 282 282 282 282 282 282 282 283 281 281 282 281 282 283 283 283 283 282 282 282 282 281 281 281 281 280 280 280 280 281 281 280 280 280 281 283 283 284 283 282 281 282 282
283 284 284 285 283 283 283 282 282 283 284 282 283 284 283 284 284 284 283 282 282 282 281 282 283 282 282 282 281 281 281 281 281 280 279 280 280 280 280 280 280 282 282 281 282 281 282 282 282 282 281 280 280 281 282 282 282 282 283 282 282 282 282 283 282 282 282 281 281 280 280 280 280 280 281 280 281 281 281 280 281 283 284 284 283 283 283
283 285 284 282 282 282 282 283 283 283 283 283 284 284 282 282 283 283 282 282 282 283 283 282 282 282 282 282 281 282 281 280 281 281 280 279 280 281 281 281 281 281 281 280 280 280 279 280 279 280 280 281 281 281 281 281 281 281 282 281 282 281 282 282 281 282 282 281 281 281 281 280 280 281 280 281 282 283 284 284 283 283 282 281 281 281 283
282 282 282 282 282 282 282 282 282 282 283 284 283 282 282 282 282 282 282 283 282 283 282 283 284 283 281 282 282 283 281 280 281 280 281 280 280 280 281 281 280 280 281 280 279 281 280 279 281 281 281 279 280 281 282 282 281 280 280 280 281 280 282 283 282 282 281 281 281 281 280 280 280 280 281 282 283 284 285 285 284 284 284 283 283 283 283
Wind_Speed
5 5 4 5 5 6 3 5 5 9 4 12 8 1 2 2 1 6 9 8 9 8 8 5 7 10 10 10 10 9 8 8 10 10 12 12 11 11 13 12 12 12 11 10 10 10 11 11 10 7 7 8 8 8 6 6 5 5 6 9 7 5 8 11 7 3 3 3 2 3 2 3 3 2 0 1 1 2 3 2 2 3 2 3 3 4 3
6 8 7 4 5 1 4 9 8 7 7 5 5 3 2 1 0 3 12 8 5 3 5 7 10 11 13 11 9 8 10 10 8 11 11 10 10 11 11 11 11 11 11 11 10 10 11 11 10 8 8 8 8 9 8 6 7 5 4 4 5 5 6 7 6 4 4 3 4 3 2 1 1 1 1 1 1 1 2 3 3 2 2 2 3 4 4
3 5 4 7 6 5 5 8 12 12 10 3 5 3 5 9 10 10 10 11 8 5 9 11 11 12 11 10 9 9 9 9 10 11 9 9 9 9 9 10 10 10 11 11 12 13 13 13 13 10 9 9 10 10 8 8 7 7 9 9 8 8 8 7 6 5 6 4 5 5 5 4 4 5 4 3 2 2 3 2 3 2 2 2 3 3 4
2 3 5 3 2 5 8 8 12 13 12 8 6 3 2 3 8 9 11 7 5 4 9 11 12 12 11 13 10 6 7 9 11 13 11 10 7 7 8 8 8 10 11 11 12 12 11 11 11 12 11 11 12 10 10 10 9 11 11 10 9 9 6 7 6 6 6 6 7 7 7 7 6 5 4 4 5 4 5 6 5 2 0 2 2 1 2
1 2 4 1 2 2 3 6 7 7 5 3 4 2 5 2 6 12 9 6 5 8 8 14 9 11 8 10 9 6 6 8 11 12 10 9 9 7 8 9 9 10 9 8 9 9 10 10 10 12 10 12 12 10 11 10 10 12 12 11 11 11 9 10 9 8 9 9 9 9 7 7 4 4 3 4 5 6 5 3 4 7 5 3 3 2 2
1 4 1 1 2 4 3 1 2 2 2 4 4 3 5 6 5 1 4 9 8 8 8 14 11 10 7 5 7 4 2 5 10 9 8 8 7 6 8 9 8 7 7 7 7 9 8 9 10 11 11 12 10 10 10 11 13 12 11 12 12 12 11 11 10 10 10 10 10 9 9 9 8 8 8 8 7 7 6 5 6 5 5 4 3 3 3
1 1 3 3 3 1 2 3 3 2 2 5 8 5 7 6 11 14 14 10 10 9 9 11 13 11 10 9 8 7 4 5 7 8 7 8 8 8 8 8 9 8 8 8 10 11 10 9 9 9 11 11 10 12 12 13 12 13 12 14 13 12 13 12 12 11 10 11 10 9 9 9 9 10 9 8 9 7 7 7 8 7 6 6 5 5 4
1 1 1 1 0 0 0 2 4 5 1 3 1 8 8 7 5 12 9 9 10 12 13 12 11 14 10 10 8 6 7 5 5 8 8 8 8 8 7 9 8 8 8 8 8 8 6 8 8 8 9 9 11 11 12 13 13 13 13 14 13 12 13 11 11 10 11 11 10 11 10 10 10 9 8 7 7 6 6 7 6 6 7 6 7 7 5
2 1 2 1 0 0 4 2 5 5 3 5 3 3 3 3 2 8 13 9 10 12 12 14 14 12 11 11 9 8 4 4 4 7 8 8 9 9 8 7 7 6 5 7 6 6 9 9 9 8 7 9 9 10 12 11 13 13 14 14 13 12 12 11 11 11 10 10 9 9 8 10 9 8 7 7 7 6 7 7 7 7 6 5 5 6 7
3 4 2 1 2 1 1 2 3 2 4 2 2 0 2 2 5 3 12 13 11 11 11 11 12 7 11 11 5 2 2 2 5 5 7 8 9 7 6 5 5 6 6 7 7 8 9 10 8 8 8 8 10 11 11 10 13 13 14 13 12 12 12 11 10 10 11 10 10 10 10 10 8 7 6 5 6 4 6 5 6 5 4 6 6 6 7
2 3 3 1 2 0 0 5 4 4 2 3 2 1 2 1 6 4 9 14 10 12 11 8 4 3 5 4 6 4 2 1 2 7 6 6 6 6 6 6 7 6 6 6 6 7 8 8 6 5 4 7 11 10 10 10 11 11 11 10 10 10 9 9 8 8 9 9 10 10 10 9 8 8 7 6 4 4 4 4 3 3 5 6 7 7 7
2 3 3 1 0 1 2 6 6 7 3 4 1 2 1 3 6 6 5 12 14 9 7 3 4 8 8 6 5 4 3 3 3 4 6 6 6 6 5 5 5 6 6 8 9 8 8 6 5 6 6 9 11 11 11 11 12 12 10 8 6 5 7 8 8 9 8 8 9 8 8 7 8 8 6 6 7 6 6 6 6 6 6 7 7 7 7
4 4 2 1 1 1 3 6 10 9 2 3 2 2 0 0 6 5 5 5 5 6 6 2 4 1 3 10 8 5 4 8 8 7 6 6 6 7 7 6 5 6 6 7 7 7 6 6 7 7 9 11 12 11 11 12 11 8 7 6 6 6 6 7 8 8 8 8 8 7 5 4 3 4 5 6 7 8 7 7 7 8 8 7 6 6 6
4 3 3 1 1 1 4 8 7 6 1 0 2 2 2 3 8 4 5 5 2 3 3 3 4 7 9 9 7 7 6 7 6 7 7 8 8 7 6 6 5 6 6 6 7 7 7 8 8 9 10 12 10 10 11 11 7 5 6 6 6 6 7 7 7 7 7 6 5 5 5 6 6 6 6 5 5 5 5 5 7 7 6 6 6 6 5
2 3 3 3 2 1 7 12 5 4 2 1 1 1 5 4 8 7 4 3 2 6 6 6 10 10 8 8 7 6 6 7 9 9 9 8 9 8 7 6 4 5 6 6 7 6 6 6 7 8 11 12 10 9 10 6 4 5 5 5 5 5 6 6 5 5 5 5 5 4 5 5 5 6 5 6 6 6 6 6 6 5 5 5 5 6 6
1 2 3 1 2 7 10 3 1 2 0 1 0 2 5 6 7 7 7 5 3 6 11 9 8 8 9 7 7 6 6 7 8 8 7 6 6 6 6 5 3 4 6 6 8 7 6 5 6 7 10 9 8 8 6 2 3 4 4 4 4 5 5 4 5 4 4 4 4 4 4 4 4 5 5 4 4 5 4 4 5 5 5 5 5 5 5
2 1 2 1 1 5 5 4 3 3 4 4 3 9 6 7 7 5 8 7 7 7 10 8 7 8 5 5 5 6 5 6 7 8 6 7 7 7 7 6 5 5 6 7 8 8 6 6 5 5 7 10 8 7 2 2 3 4 4 4 5 5 5 4 4 3 3 3 3 3 3 3 4 3 4 3 5 4 3 3 3 3 3 3 3 3 3
5 7 4 1 2 2 6 6 4 6 6 5 7 10 10 8 6 5 8 7 8 7 6 10 6 5 6 8 7 7 6 7 6 5 7 7 7 7 7 7 7 6 6 8 9 8 7 5 5 4 4 7 8 4 3 3 3 4 4 5 5 4 3 3 2 1 2 1 1 1 2 1 1 1 1 2 2 4 3 2 2 2 2 2 3 2 2
3 2 2 3 2 3 6 8 7 7 7 6 8 11 10 9 9 9 8 9 8 8 8 8 7 6 7 8 6 6 6 6 5 6 6 6 6 7 7 4 5 6 6 7 7 7 7 4 5 4 5 5 5 4 4 3 4 4 5 5 4 3 3 3 1 1 1 1 1 2 2 3 3 3 3 2 2 3 3 2 2 1 1 2 3 3 4
4 3 1 2 3 3 4 2 7 7 7 8 8 9 9 9 9 9 8 8 9 7 8 6 8 5 5 8 7 6 5 5 4 5 4 5 6 5 4 4 5 5 6 5 5 6 6 3 4 4 4 4 3 2 2 2 3 3 4 4 4 3 2 1 1 1 1 1 1 2 3 2 3 3 3 2 3 5 5 5 4 4 3 3 4 5 6
2 3 2 1 5 6 5 4 3 4 6 8 7 7 8 9 10 8 7 6 7 8 7 6 9 8 5 6 7 7 5 5 5 4 4 4 4 4 5 5 4 6 5 5 5 5 4 3 4 4 2 1 1 1 1 2 2 4 4 4 3 3 2 3 4 3 3 3 3 4 3 3 3 3 4 5 5 5 4 3 3 4 4 5 4 4 4
1 4 4 3 5 0 1 1 1 3 3 7 8 7 8 8 8 8 9 6 5 5 3 6 9 9 6 4 6 7 5 5 4 4 4 4 5 5 4 5 6 5 4 3 4 4 4 4 4 3 1 0 1 1 0 1 3 4 4 4 4 4 3 4 4 4 5 5 4 4 4 5 4 4 5 6 6 5 6 7 8 7 4 3 5 5 5
4 5 6 2 3 5 3 3 1 1 2 5 7 7 6 5 6 8 9 7 6 6 4 4 9 7 7 4 5 6 4 3 2 4 5 6 5 4 4 6 6 5 4 4 4 5 4 3 4 4 3 3 2 1 2 3 4 4 4 5 5 6 5 5 5 5 5 6 5 5 5 5 5 6 6 5 7 10 10 9 9 9 9 10 10 10 6
1 2 6 4 4 5 3 2 1 0 1 6 5 4 4 5 5 5 7 8 8 3 4 3 5 8 6 4 6 6 3 3 4 4 4 4 5 4 4 5 4 5 5 4 4 2 2 3 4 4 5 4 3 2 3 3 4 5 5 5 6 6 6 5 5 4 4 4 4 5 6 5 5 5 6 7 8 4 7 10 10 9 10 11 11 11 12
3 1 3 3 3 4 2 2 0 0 1 4 6 5 6 5 3 4 7 5 6 9 6 5 2 3 8 4 5 6 4 3 3 5 4 4 3 4 4 4 4 4 2 1 1 1 2 4 5 5 5 5 5 3 2 3 2 4 4 4 3 4 4 4 5 5 5 6 6 6 5 5 5 5 6 6 7 10 7 6 9 10 10 10 10 11 11
8 6 5 5 6 6 5 4 3 2 2 2 3 1 0 4 6 4 5 6 4 4 6 5 5 2 6 6 4 4 4 5 4 3 4 3 2 2 3 4 4 3 3 2 2 3 3 3 4 5 5 4 5 3 1 0 0 0 2 1 1 1 3 4 3 3 3 4 5 5 5 4 4 4 4 4 6 5 8 10 9 6 5 6 9 11 11
5 8 9 8 5 2 1 6 4 4 3 3 5 4 3 4 5 4 2 2 4 4 6 6 5 5 3 4 5 4 7 4 2 1 3 4 4 5 3 2 2 3 3 3 2 2 3 2 4 4 3 4 4 4 1 0 0 1 2 2 2 4 4 3 1 3 3 3 4 5 5 5 4 4 6 5 3 4 5 6 8 9 10 9 5 7 10
4 1 5 7 4 3 1 0 4 2 3 5 4 4 4 4 5 5 4 2 2 0 1 4 7 6 5 4 5 3 1 5 6 4 3 5 5 3 3 2 2 1 1 2 1 1 2 2 3 3 3 3 4 4 2 1 0 0 1 1 1 2 2 2 1 2 3 3 4 4 5 5 5 4 4 4 5 6 5 6 6 8 8 8 7 9 13
3 4 3 5 6 6 5 4 4 4 4 1 4 5 5 5 4 5 5 5 3 2 3 1 2 4 6 5 4 6 5 5 5 5 6 3 2 2 1 1 1 0 0 0 1 1 1 2 2 2 3 2 3 4 3 0 1 1 1 1 1 2 3 1 1 2 3 4 4 4 4 4 4 5 4 4 4 4 5 5 6 6 6 8 8 7 6
0 1 4 4 4 6 7 5 5 3 2 3 4 2 4 9 5 5 5 4 3 5 3 1 2 2 2 4 4 5 7 7 6 4 3 3 2 1 0 0 0 0 1 2 1 1 0 1 1 1 3 3 3 4 3 2 3 2 2 1 0 1 2 1 1 3 4 5 5 6 5 5 5 4 4 4 4 4 4 5 5 5 6 7 6 7 8
0 2 3 3 4 4 6 6 5 5 3 1 2 4 0 4 7 7 6 5 3 3 2 4 3 3 2 4 4 3 2 3 3 3 3 1 1 1 1 0 1 3 4 3 2 1 2 2 0 2 3 2 3 3 3 3 4 3 2 1 1 1 1 3 3 2 4 4 5 5 5 5 5 4 5 5 5 5 5 4 4 4 5 5 5 6 6
3 4 5 3 3 4 1 1 2 4 3 1 3 5 5 4 4 5 5 5 6 5 4 4 4 6 4 3 3 3 2 2 1 1 2 2 2 2 1 1 1 3 2 3 3 3 3 3 2 3 2 2 3 3 2 3 2 3 4 2 0 1 2 3 3 3 3 4 4 5 5 5 6 5 4 3 3 4 4 3 4 4 4 4 5 6 6
4 2 0 1 2 2 2 2 5 5 4 4 5 4 4 3 4 5 7 5 4 3 5 7 5 4 4 4 3 3 1 0 1 2 3 4 4 4 3 2 2 3 3 4 4 3 4 5 5 3 3 3 3 3 2 3 3 4 3 2 1 1 2 3 3 3 4 3 4 5 4 4 5 4 4 3 3 3 3 2 3 3 4 4 4 6 5
4 6 7 7 6 5 4 1 2 0 0 1 1 2 2 1 1 3 4 4 5 6 6 7 6 5 4 4 4 3 2 1 2 5 5 5 5 4 3 2 2 3 4 4 4 5 6 6 5 4 3 3 4 3 1 1 3 4 3 2 1 1 1 2 3 3 2 3 5 5 4 4 5 5 4 3 2 1 1 1 3 4 4 5 4 5 7
3 3 1 1 0 4 3 2 2 1 0 0 1 2 3 3 3 4 4 6 7 10 6 4 5 5 5 4 4 4 5 6 7 5 5 5 5 4 3 2 2 3 4 4 4 6 6 5 4 4 3 3 3 3 1 2 3 3 3 3 2 1 1 2 2 2 2 3 3 4 4 4 5 4 4 1 1 1 1 3 4 5 3 5 5 6 7
3 4 3 3 4 4 4 2 2 1 3 4 4 3 3 4 3 3 5 5 3 2 4 5 4 5 4 5 4 5 6 7 7 7 5 5 5 1 1 2 2 2 3 6 4 4 3 4 5 5 2 2 3 2 1 3 3 3 3 3 2 1 0 0 1 2 1 3 2 2 3 4 4 2 2 2 2 2 4 4 4 3 4 4 5 6 6
4 5 4 4 4 5 6 5 4 4 4 4 1 1 2 2 3 3 3 4 4 4 5 5 5 5 7 9 7 4 4 5 5 5 6 3 0 1 2 2 2 2 1 3 3 2 2 1 2 2 1 2 2 2 2 4 4 3 3 3 2 1 0 1 2 2 2 2 2 2 2 2 2 2 2 3 3 3 4 3 4 4 4 5 5 5 6
1 4 5 5 4 5 3 1 1 0 1 1 1 4 4 4 3 2 3 3 4 5 6 7 8 7 4 2 1 3 5 5 5 5 5 3 2 1 2 3 5 2 2 4 2 2 3 3 4 2 1 3 3 2 2 2 4 3 3 2 2 1 0 0 2 2 3 2 2 3 2 2 2 2 2 3 3 3 3 3 3 3 4 5 5 5 5
2 1 2 3 4 4 4 2 3 2 1 4 6 5 4 2 2 3 3 4 3 4 6 5 3 3 3 3 4 4 5 6 5 5 5 4 3 3 5 6 6 6 6 3 2 3 3 3 2 0 3 4 3 2 1 3 2 3 2 2 2 2 2 2 1 2 2 2 2 3 3 3 2 2 2 3 3 3 3 4 4 3 4 4 4 5 4
0 1 2 1 1 1 2 2 2 1 1 2 4 5 3 2 3 4 3 3 4 5 5 5 5 5 4 4 4 6 7 5 4 4 4 2 2 2 4 6 8 8 8 8 6 5 4 5 1 2 3 3 3 2 1 1 0 2 3 3 3 2 2 1 1 1 2 2 2 3 3 2 2 2 2 3 4 4 3 4 4 4 4 4 4 4 4
2 2 2 2 3 3 3 2 2 2 2 2 1 1 1 2 3 3 4 4 4 5 5 6 7 6 5 6 7 8 4 2 3 3 3 3 2 3 3 6 4 3 4 5 5 5 4 4 3 4 3 3 3 2 2 2 1 3 3 3 3 3 2 2 0 0 1 1 1 2 2 2 2 2 2 3 4 3 3 4 4 3 3 4 4 4 4
4 3 2 2 3 4 4 3 2 3 3 3 4 3 1 0 2 3 3 3 3 5 6 6 8 9 7 6 4 2 3 3 3 3 5 6 6 4 2 6 4 4 5 5 5 5 4 3 3 4 4 4 3 4 4 1 1 3 4 4 3 3 3 2 0 1 1 1 1 1 2 2 2 2 3 3 3 3 3 4 3 4 3 4 4 4 4
2 4 5 4 4 4 4 4 4 5 5 5 4 4 4 2 2 0 0 2 4 4 5 5 6 6 4 3 3 4 5 2 3 4 4 5 4 5 6 6 4 3 4 3 3 4 5 4 4 4 5 5 4 5 4 2 2 4 5 5 4 4 3 3 1 1 0 0 1 1 2 2 2 2 3 3 3 3 4 4 3 3 3 3 3 4 4
3 4 4 4 4 4 4 4 4 3 4 7 5 3 3 3 3 3 2 2 3 4 5 6 6 6 6 4 3 5 6 4 5 5 5 5 4 6 8 8 7 7 5 3 4 4 4 3 4 5 7 7 6 6 3 3 3 5 6 6 5 5 4 4 2 2 2 1 1 1 1 1 2 2 2 3 3 3 4 4 4 3 3 3 3 3 3
3 4 4 5 5 4 4 4 5 7 6 4 3 1 2 3 4 3 3 3 2 3 4 5 5 6 6 6 7 8 7 7 7 6 3 4 4 7 4 8 9 7 6 6 4 4 3 3 5 6 5 7 4 4 3 4 5 6 6 6 6 5 5 5 4 4 3 2 1 1 2 2 2 2 3 3 3 3 4 3 3 2 2 3 3 4 4
4 3 4 4 4 6 7 6 6 4 3 4 5 6 3 3 4 3 3 4 4 4 5 5 6 6 7 7 7 6 2 2 4 6 7 7 7 6 2 4 6 6 8 8 4 4 4 5 6 6 5 4 3 2 3 4 5 5 6 6 6 6 6 5 4 3 3 3 3 3 3 3 3 2 2 3 3 4 3 3 3 2 3 3 3 3 3
4 4 2 3 4 5 5 5 3 3 2 2 4 7 4 1 2 3 3 3 4 4 3 3 5 6 5 7 7 6 5 6 6 6 6 6 6 5 4 4 5 6 6 6 6 6 5 5 5 4 4 5 4 2 3 4 5 6 6 6 6 5 5 5 5 5 4 4 2 2 3 3 2 3 3 4 4 4 3 3 3 3 2 2 2 2 2
4 4 4 3 3 3 1 0 1 2 4 5 5 6 5 3 3 3 3 3 3 3 3 3 4 4 4 5 5 6 7 6 4 7 4 6 5 4 3 4 5 6 7 5 5 4 5 6 5 5 5 5 4 2 3 3 5 5 5 5 5 5 6 6 5 5 5 3 3 4 3 3 3 3 3 3 3 4 4 3 3 3 2 2 2 2 2
3 4 3 2 1 1 2 3 3 3 6 5 4 6 4 3 3 3 3 2 3 3 3 3 4 5 4 5 6 7 6 6 7 6 4 5 5 5 4 3 4 6 5 5 4 4 4 5 5 5 5 5 3 3 3 3 5 5 6 6 6 6 6 6 6 5 5 5 5 5 4 4 4 5 5 3 3 2 3 3 3 3 3 3 3 3 3
2 1 1 1 1 2 3 3 4 6 5 3 5 6 4 2 2 5 2 2 3 3 3 3 3 2 2 2 2 3 4 6 5 3 2 4 4 3 4 4 3 4 5 4 3 3 4 5 5 5 4 3 3 3 4 4 5 6 6 6 6 5 6 6 5 6 5 5 5 5 5 4 5 5 3 3 4 3 4 2 2 2 4 3 3 3 3
2 2 2 2 3 3 2 3 4 4 4 4 5 5 2 3 3 3 2 1 0 1 2 2 3 4 4 3 3 2 2 4 4 5 5 4 4 5 5 4 4 4 3 3 3 4 3 3 3 3 3 3 4 4 4 4 5 5 5 6 6 6 6 6 6 6 6 6 5 5 5 5 5 5 5 4 4 5 4 4 3 3 3 2 3 3 3
3 2 1 1 1 1 2 1 2 2 1 1 1 1 1 1 0 2 4 2 3 4 3 2 4 5 3 3 3 3 2 2 2 3 3 3 4 4 5 5 4 3 4 4 4 3 3 3 3 3 3 3 4 5 4 5 4 4 3 3 4 5 5 6 6 6 5 6 6 5 5 5 5 5 4 4 4 4 4 4 4 4 4 4 3 3 3
Wind_Direction
20 23 26 37 51 60 67 34 10 25 7 52 52 310 256 33 133 202 165 166 144 141 154 138 112 118 108 99 95 95 104 96 87 88 75 61 49 42 44 39 35 34 34 23 13 21 27 27 36 40 69 75 73 74 70 82 96 105 127 147 174 172 162 166 171 149 116 98 89 103 99 120 140 116 61 246 179 139 150 174 174 184 191 193 203 231 258
35 9 17 30 70 44 36 19 6 358 23 73 95 48 356 126 50 139 135 125 103 97 108 89 89 96 98 94 98 103 95 91 93 86 78 70 61 56 52 44 38 35 31 25 22 24 19 25 22 39 60 74 78 87 90 84 88 86 103 91 85 68 67 62 58 62 67 78 99 100 101 116 109 114 64 341 319 232 207 206 211 176 154 181 203 207 217
26 16 12 42 53 66 51 3 8 6 354 49 51 82 40 67 69 96 106 102 76 36 91 94 89 93 97 92 88 95 104 105 96 85 77 72 70 63 56 49 41 38 33 27 29 30 26 25 25 21 40 59 66 69 73 81 80 85 86 88 86 96 99 104 103 101 96 82 74 73 68 57 45 46 43 42 47 35 23 349 299 260 135 163 230 209 201
329 14 13 339 10 75 74 24 4 358 356 15 350 357 297 124 135 120 109 107 119 111 96 92 94 90 88 101 93 74 91 97 96 91 85 75 56 55 57 52 47 45 38 34 33 33 25 21 22 29 33 48 57 59 61 63 63 64 64 62 63 65 61 72 75 84 80 74 66 59 67 66 67 45 44 54 51 38 35 30 8 19 81 155 161 212 224
280 309 351 338 351 21 5 1 329 321 296 269 299 344 31 30 139 136 156 171 129 143 131 103 83 87 83 81 70 66 84 87 91 92 91 84 69 52 51 54 52 50 45 34 37 32 34 30 28 27 32 49 48 49 58 60 68 67 66 66 66 64 55 63 65 66 66 66 67 61 51 55 67 91 61 43 28 27 21 13 39 45 23 25 42 102 139
183 326 116 205 101 174 235 309 308 274 303 302 344 5 359 9 50 106 74 111 125 125 114 108 109 93 81 77 99 88 44 107 95 92 95 90 81 62 58 54 53 54 54 46 42 44 40 40 41 45 44 51 52 51 57 56 58 57 63 60 62 57 51 48 53 59 66 72 69 66 68 63 58 60 53 40 28 20 14 22 42 34 10 4 360 28 67
65 330 91 113 174 176 153 205 310 297 316 51 99 60 39 73 100 101 101 110 113 100 90 96 98 89 71 39 52 51 42 71 87 97 92 89 83 74 62 54 49 50 48 56 57 48 41 40 43 44 50 51 53 54 52 57 54 58 57 59 55 54 53 40 39 43 50 53 55 62 63 64 62 53 53 42 34 21 25 29 33 28 10 354 352 343 355
66 34 15 126 169 178 230 180 0 350 352 19 328 57 30 15 78 103 85 94 101 105 103 95 94 92 89 78 52 42 13 18 85 97 90 82 76 72 66 69 56 51 42 41 52 59 51 42 41 42 46 47 54 52 51 55 55 53 56 60 57 53 53 49 47 48 52 51 45 43 48 53 54 50 45 43 37 17 30 29 25 25 18 23 14 359 346
152 156 57 131 20 317 14 18 5 9 355 346 1 69 10 21 5 119 122 108 105 107 112 115 112 109 96 76 47 9 24 39 50 93 98 92 82 81 68 62 57 44 40 42 39 51 58 55 47 40 40 55 63 62 59 55 57 54 49 49 49 47 46 42 40 36 40 48 46 46 44 51 48 44 40 34 30 24 39 30 27 23 17 11 7 9 4
115 138 81 2 21 108 14 213 261 272 232 222 187 35 62 30 81 95 124 124 128 118 125 133 140 145 81 68 49 344 349 41 93 84 90 89 91 81 78 62 62 51 47 46 40 52 57 57 41 39 42 52 58 55 56 55 58 56 54 49 45 44 43 40 41 41 40 38 40 38 40 41 38 35 33 34 31 22 44 31 27 10 8 16 15 16 14
65 54 113 149 153 253 229 297 287 261 248 208 156 74 48 128 141 138 139 127 141 137 144 163 195 135 87 120 153 189 193 140 94 99 90 94 96 92 80 74 67 60 58 64 61 59 61 60 48 61 58 57 60 57 54 56 62 63 62 61 54 47 42 45 42 48 48 46 43 37 39 33 31 28 23 22 6 19 33 39 35 16 24 25 16 17 14
55 131 82 87 73 119 325 317 310 305 230 165 126 85 246 148 154 148 163 148 146 149 130 136 83 103 119 151 196 183 161 128 105 90 95 87 86 81 83 72 70 66 60 60 53 52 53 51 44 51 63 70 68 66 61 61 60 58 57 61 68 74 69 60 55 49 44 44 46 41 33 32 34 29 12 19 16 17 18 24 25 27 29 32 30 15 6
50 74 96 19 333 296 336 318 316 313 240 158 79 199 273 36 130 142 135 143 131 126 137 151 103 300 137 141 142 136 126 97 80 72 72 80 84 88 85 86 82 69 60 64 65 58 50 43 43 52 66 71 69 67 67 64 59 57 58 57 54 50 49 49 50 56 53 48 47 44 41 38 29 36 32 29 23 22 19 14 24 26 25 21 24 14 7
48 7 84 171 219 236 322 318 310 283 346 44 228 254 268 164 115 117 127 122 81 114 144 141 112 108 96 106 111 111 104 100 96 88 83 77 74 70 69 65 72 76 66 66 62 54 49 57 66 72 73 73 70 68 67 66 61 59 59 57 57 53 51 49 47 45 45 43 47 45 35 31 35 28 16 23 32 31 29 32 30 25 22 17 11 4 2
46 39 51 36 44 260 13 321 327 20 86 227 272 307 24 72 105 104 73 84 115 119 83 87 103 103 101 106 105 100 97 94 92 86 79 78 77 69 64 57 42 76 70 61 59 58 53 68 80 82 83 82 79 75 74 73 71 69 66 64 62 60 56 53 50 50 50 50 44 42 38 37 44 37 18 23 20 21 20 17 22 23 24 17 15 4 353
121 42 56 123 259 291 322 345 121 333 309 252 222 97 61 40 80 91 91 50 55 96 107 105 92 96 104 90 95 91 92 95 89 87 90 86 78 73 69 71 63 83 82 74 69 61 67 72 81 90 92 90 86 84 85 110 94 82 73 69 66 63 58 55 52 47 47 46 45 40 39 37 37 33 21 18 21 23 20 24 21 17 8 11 11 9 356
103 152 184 266 322 296 324 19 61 62 28 42 69 90 81 74 46 71 89 77 61 78 92 80 96 97 81 94 88 93 96 92 88 86 84 86 85 78 68 54 48 58 72 83 79 67 58 68 75 84 97 101 97 91 107 123 94 89 85 74 68 62 59 55 53 48 43 42 38 34 30 39 40 27 12 14 13 357 11 12 19 15 348 0 357 336 335
76 58 58 27 335 4 49 34 30 59 60 46 70 84 83 65 70 59 93 88 85 81 92 108 79 85 108 96 89 86 80 81 74 73 63 54 58 58 54 45 46 70 82 82 81 78 60 58 75 78 84 98 98 122 147 129 117 109 99 85 75 76 78 78 66 69 64 22 24 25 17 22 39 47 38 17 9 341 358 350 353 347 327 324 315 306 293
54 21 338 15 31 41 66 72 53 52 57 69 85 87 91 101 98 89 82 93 87 87 85 87 102 104 100 93 82 80 75 68 61 59 62 50 50 55 50 32 53 59 79 79 83 84 75 54 73 76 81 80 111 132 119 125 113 106 96 97 99 104 116 131 140 121 107 47 5 354 359 351 355 356 353 5 355 340 340 330 328 308 306 300 304 297 304
98 176 223 331 342 354 355 46 88 75 73 71 69 90 100 100 95 97 102 92 82 84 85 94 98 93 96 101 93 84 83 84 76 71 67 56 44 29 45 39 73 71 73 89 84 79 77 66 79 86 88 96 107 120 136 131 119 93 84 90 100 108 103 107 116 115 57 19 27 2 352 4 357 351 345 352 349 328 321 315 320 319 317 317 308 307 309
26 35 13 34 50 25 7 14 70 102 110 102 95 95 97 100 96 91 75 84 115 113 126 119 107 93 76 105 112 106 102 94 89 90 82 65 60 38 30 19 62 109 115 100 96 86 78 80 95 82 92 117 174 181 182 170 122 76 68 65 67 60 33 26 19 21 17 10 9 5 355 354 347 331 331 337 328 310 285 245 242 276 300 288 275 272 279
105 174 197 168 93 65 297 5 33 49 72 102 99 92 88 95 102 102 96 66 54 80 98 117 113 114 115 110 108 109 114 118 119 98 80 68 58 45 44 62 63 63 55 71 82 82 51 34 56 67 57 211 259 254 223 93 66 55 47 43 37 30 23 16 10 13 8 5 2 359 357 351 354 342 326 322 309 298 293 299 294 280 235 241 263 282 284
216 238 207 175 147 147 206 203 270 350 49 89 93 95 100 96 106 115 108 99 79 77 56 81 108 115 122 131 113 105 109 110 105 108 99 87 73 61 56 64 48 60 54 56 58 43 15 17 48 37 10 332 308 4 58 44 45 33 34 29 22 12 12 4 2 2 5 358 355 354 350 356 354 347 334 327 311 305 297 288 289 289 286 275 280 281 272
12 166 151 185 150 162 206 229 237 307 37 96 86 80 95 122 138 129 121 130 125 112 93 73 116 131 129 141 123 124 107 100 100 92 97 115 123 121 98 104 90 61 48 43 49 24 341 14 37 28 10 342 307 324 29 36 33 20 29 32 11 353 357 351 356 360 355 352 347 354 345 352 346 346 341 335 328 306 293 298 296 292 292 294 293 293 294
145 173 144 182 115 91 65 109 65 157 122 121 126 147 145 137 169 156 135 145 147 139 137 120 84 120 134 159 138 140 146 182 169 150 150 137 138 120 124 105 103 115 124 126 118 100 39 31 37 28 13 349 336 320 25 43 35 10 26 36 4 336 336 338 349 351 352 350 347 345 344 339 337 342 343 342 335 330 329 299 288 291 294 290 288 289 290
109 97 95 80 80 97 115 87 60 92 144 110 92 63 55 152 155 155 155 150 151 149 135 142 139 180 143 150 155 141 134 168 185 160 127 130 129 129 160 161 176 165 141 136 98 82 58 44 51 34 12 341 345 310 110 116 104 55 31 3 302 280 315 335 347 339 347 344 337 324 313 307 303 308 307 310 311 314 319 329 332 313 272 272 290 299 301
114 123 95 65 65 60 186 147 180 197 131 115 122 122 114 122 138 138 128 131 148 158 160 158 141 157 154 147 141 162 160 174 138 175 177 180 193 204 212 196 184 177 148 134 90 78 97 45 56 36 346 330 343 318 237 127 78 30 23 348 353 334 344 354 328 321 328 334 326 319 319 314 309 303 302 309 306 310 319 324 321 318 324 325 321 308 314
125 112 118 142 169 174 203 99 130 137 129 128 121 110 114 106 107 115 125 126 157 128 72 133 136 125 128 165 143 158 145 159 183 190 190 212 220 225 221 216 210 196 140 116 116 109 103 89 72 50 322 323 344 338 285 126 148 316 299 285 356 336 333 332 351 344 327 318 311 307 302 299 298 298 301 310 315 314 316 310 306 313 316 315 312 316 315
145 142 130 139 162 167 142 138 129 150 176 146 127 122 117 112 140 150 178 187 180 150 149 99 106 150 154 179 169 169 185 191 188 197 209 222 234 249 283 312 301 20 54 73 85 53 77 81 72 37 306 311 339 340 338 286 212 231 249 239 5 339 345 304 317 303 296 294 291 293 300 303 305 305 307 302 296 298 302 302 305 306 302 307 317 320 316
357 139 130 129 127 127 121 145 178 193 177 163 128 128 141 135 147 191 197 200 176 181 203 159 124 160 175 165 186 172 177 197 204 208 216 224 233 304 353 8 50 14 1 339 315 358 358 127 97 13 279 302 322 326 330 282 266 245 243 249 247 321 288 278 329 318 313 310 303 314 313 308 302 298 298 296 303 309 307 305 306 310 312 318 324 322 332
330 16 56 97 107 125 150 184 193 197 191 194 132 134 90 148 161 183 204 203 200 197 173 174 183 140 165 196 189 190 194 188 203 213 219 258 313 338 341 49 211 256 257 255 283 317 299 263 194 249 265 285 304 309 309 264 255 267 279 306 1 18 290 292 301 312 307 309 317 322 318 315 307 314 309 316 322 324 322 316 315 315 312 315 316 314 316
76 39 50 64 91 96 63 319 265 239 229 160 144 173 174 151 169 180 184 185 199 181 161 155 168 190 195 187 167 168 188 207 242 300 316 331 308 305 303 318 237 239 243 257 263 262 261 265 277 257 272 296 303 298 272 241 234 240 243 238 343 333 325 316 329 320 320 315 314 318 315 323 321 320 317 324 318 313 312 314 315 318 319 318 313 313 318
95 83 30 62 60 88 150 220 181 220 206 196 212 214 200 203 176 168 181 172 136 159 173 188 193 182 173 160 151 151 139 79 11 340 307 285 277 273 258 231 250 259 260 247 239 234 235 244 248 274 292 289 290 282 251 214 207 223 224 190 202 256 310 308 304 324 324 331 333 324 322 329 308 311 308 303 299 297 293 289 309 328 327 317 315 314 326
170 189 198 202 175 173 168 211 311 116 358 333 250 218 233 240 263 187 152 158 164 171 194 197 187 171 157 162 156 143 128 136 275 263 249 248 261 271 267 250 250 257 259 265 257 248 241 242 250 265 272 279 279 283 278 208 220 209 181 168 175 285 295 311 357 338 327 333 326 322 332 331 330 324 315 306 292 286 303 341 355 351 338 334 327 327 335
218 281 345 353 317 133 124 128 147 134 319 183 280 217 204 187 184 184 166 159 178 202 195 162 161 162 158 148 152 168 180 208 234 240 247 238 244 250 278 295 291 293 295 279 246 244 235 234 235 248 268 274 277 287 267 225 208 178 174 163 168 210 260 328 353 322 312 307 319 326 338 345 344 341 334 312 30 29 15 26 15 2 350 343 344 349 354
128 116 102 97 106 92 78 57 6 316 210 195 207 207 193 208 176 130 167 208 210 135 141 153 145 141 151 163 181 202 216 235 243 247 256 249 240 233 245 252 275 315 320 311 268 238 246 241 243 239 251 284 296 297 252 225 204 178 165 148 173 183 55 17 304 302 324 327 311 328 345 337 328 348 360 354 33 41 45 32 12 1 356 359 359 1 0
57 86 80 67 57 85 92 83 54 10 330 294 270 210 219 240 214 212 184 176 170 172 156 143 139 159 192 206 207 209 222 222 223 224 234 244 213 169 234 261 275 265 329 315 278 311 306 289 326 351 281 260 251 252 261 228 202 169 141 144 141 153 74 350 334 350 352 343 316 348 349 352 344 347 36 34 40 43 45 34 10 0 12 15 10 10 10
34 89 99 91 84 76 79 139 149 194 232 268 264 254 221 213 225 194 179 173 176 165 162 170 180 188 180 141 178 222 244 240 231 239 250 241 194 175 260 248 262 211 233 244 249 320 345 358 350 359 195 195 204 231 251 185 157 132 143 147 150 137 118 41 355 351 353 341 341 347 348 1 351 348 15 35 44 52 50 41 20 9 12 22 17 17 13
98 54 94 139 122 123 106 68 59 54 343 246 242 242 252 217 191 154 172 189 182 157 162 180 160 141 162 182 231 253 255 244 228 221 231 225 187 183 232 232 235 218 223 239 264 275 313 328 4 83 166 179 208 252 297 22 117 153 147 137 137 128 102 68 27 344 330 336 349 359 4 354 349 349 17 60 45 44 57 54 26 12 15 22 24 20 9
242 222 219 214 138 161 112 105 87 66 283 248 229 235 242 196 192 192 182 160 185 176 177 163 163 185 201 215 229 242 243 235 213 203 218 198 173 227 283 280 252 242 238 242 247 259 261 276 297 205 172 181 194 221 281 318 239 159 147 152 156 120 96 86 59 357 328 353 355 353 2 358 343 350 20 72 64 53 52 51 31 15 16 27 31 20 19
245 239 244 212 207 183 166 175 236 242 253 304 302 264 254 205 174 155 189 203 190 175 179 176 182 203 208 213 216 230 240 227 197 194 174 146 191 230 253 277 270 246 231 220 224 225 225 224 187 199 203 190 206 208 232 290 209 174 157 156 148 141 123 99 85 309 312 330 354 12 353 343 0 27 41 50 69 61 51 51 39 23 21 28 27 24 30
244 235 244 233 234 231 236 246 260 290 265 231 257 275 297 216 182 205 208 185 169 184 187 203 204 204 210 217 224 254 266 231 191 184 181 189 206 198 211 261 267 271 248 229 218 211 213 214 205 195 193 196 204 212 210 220 177 170 162 161 156 150 141 134 139 293 311 298 8 30 13 18 45 60 56 70 65 57 53 52 43 36 40 37 34 25 25
230 211 224 230 241 249 244 235 231 243 266 274 248 241 240 202 193 203 134 157 168 176 204 215 223 237 240 210 201 231 249 229 205 213 223 243 228 198 200 237 265 293 295 238 213 200 202 208 196 189 192 192 202 201 207 221 195 176 171 169 161 157 148 144 166 246 289 291 57 43 31 46 57 63 69 63 58 56 62 59 49 37 45 50 40 34 29
248 235 233 237 249 251 253 256 258 259 265 265 264 270 256 234 221 223 230 169 168 191 197 211 216 218 221 200 188 229 247 227 226 210 207 273 298 248 221 239 252 256 263 250 224 207 210 199 183 181 193 210 203 189 191 208 193 180 176 172 169 162 156 149 166 210 210 184 144 113 94 80 75 69 77 75 68 64 66 68 56 42 37 53 51 44 43
237 226 231 233 245 263 258 249 253 259 256 273 303 249 215 235 249 232 215 218 201 193 203 214 211 213 205 196 202 217 218 208 196 157 161 245 279 286 244 208 227 234 234 224 228 226 213 188 183 186 208 226 214 196 203 198 189 184 179 172 167 164 161 162 178 201 204 188 179 164 126 110 105 100 96 88 90 89 90 91 83 65 65 66 56 45 34
278 244 228 231 241 242 239 234 245 254 280 290 294 294 245 213 225 226 212 209 222 223 203 204 204 212 205 206 219 229 235 242 224 210 208 187 193 226 207 189 219 218 213 200 207 215 223 200 183 196 224 246 261 234 206 188 175 171 170 170 167 166 167 167 176 192 190 195 188 166 145 136 121 115 109 111 110 110 99 99 91 78 72 74 70 63 54
270 293 279 232 254 255 260 267 281 281 266 270 275 274 277 220 230 245 243 228 229 247 239 208 213 224 212 202 194 204 228 251 267 239 235 258 261 273 269 245 229 213 193 190 193 200 203 198 199 202 223 252 259 242 190 165 169 171 172 172 169 169 167 168 182 186 189 191 186 168 154 141 137 136 126 121 120 121 122 110 96 82 79 79 73 71 70
292 291 291 278 259 275 317 292 230 250 263 247 250 263 271 266 260 260 259 250 246 256 269 244 223 226 218 217 217 207 194 181 233 279 230 216 234 233 249 221 216 190 187 184 184 200 192 191 184 195 223 245 257 222 176 165 169 168 171 170 171 173 170 171 181 188 190 181 169 162 160 145 144 137 138 138 140 133 132 132 133 119 99 91 82 73 78
253 256 279 278 299 317 262 253 262 268 261 257 257 260 265 253 252 265 281 316 330 311 280 249 237 230 221 216 209 212 205 185 175 220 240 182 186 198 212 206 209 185 170 176 189 202 190 185 189 204 219 231 240 207 168 167 173 177 179 182 181 181 177 178 187 185 183 185 181 178 180 172 169 162 162 161 154 140 130 141 145 143 135 125 104 85 73
282 302 295 245 220 228 221 229 253 250 262 277 264 266 264 227 298 295 293 297 272 275 284 264 252 268 281 298 285 254 216 200 215 209 164 173 174 177 178 184 191 190 183 181 193 198 190 194 202 210 215 215 216 199 176 170 179 185 192 191 186 188 188 182 179 183 186 181 180 182 184 183 171 173 169 157 147 137 129 123 108 100 107 115 116 114 104
297 265 262 255 242 248 232 210 234 263 283 288 291 283 245 218 241 266 291 266 174 201 244 262 267 260 273 277 285 298 241 207 193 177 164 171 176 178 181 185 189 188 190 192 200 205 196 194 203 202 195 189 191 187 182 187 191 190 188 192 191 185 183 181 177 184 189 186 185 185 184 180 176 172 169 173 165 151 147 140 133 126 123 121 123 124 119
236 231 250 285 286 294 292 299 307 291 270 283 345 57 143 176 232 309 319 270 201 229 217 209 273 272 218 235 245 251 260 196 174 165 158 162 178 189 189 181 186 197 199 205 214 209 213 211 194 180 173 180 185 187 194 198 193 184 180 177 180 185 187 184 181 182 184 183 181 185 187 186 177 173 176 167 163 155 152 154 152 150 150 147 143 136 131